Hasvik, Norway

10:17 PM CEST on June 25, 2018 (GMT +0200)
Hasvik

Weather History for ENHK - October, 2016

Change the Weather History Date:

Friday, October 21, 2016

  Actual Average (ENHF) Record (ENHF)
Temperature  
Mean Temperature 40 °F -  
Max Temperature 46 °F 36 °F 53 °F (2007)
Min Temperature 35 °F 31 °F 17 °F (2002)
Degree Days  
Heating Degree Days 24    
Moisture  
Dew Point 36 °F    
Average Humidity 72    
Maximum Humidity 87    
Minimum Humidity 57    
Precipitation  
Precipitation 0.00 in - - ()
Sea Level Pressure  
Sea Level Pressure 30.49 in    
Wind  
Wind Speed 7 mph ()    
Max Wind Speed 16 mph    
Max Gust Speed -    
Averages and records for this station are not official NWS values.
T = Trace of Precipitation, MM = Missing Value Source: Averaged Metar Reports

Daily Weather History Graph

Daily Weather History Graph

Search for Another Location

Airport or City:

Astronomy

Oct. 21, 2016 Rise Set
Actual Time 8:15 AM CEST 4:15 PM CEST
Civil Twilight 7:07 AM CEST 5:22 PM CEST
Nautical Twilight 5:54 AM CEST 6:35 PM CEST
Astronomical Twilight 4:40 AM CEST 7:48 PM CEST
Moon 6:58 PM CEST (10/21) 4:00 PM CEST (10/21)
Length of Visible Light 10h 15m
Length of Day
7h 59m
Waning Gibbous, 65% of the Moon is Illuminated
Oct 21
Waning Gibbous
Oct 22
Last Quarter
Oct 30
New
Nov 7
First Quarter
Nov 14
Full

Hourly Weather History & Observations

Time (CEST) Temp. Windchill Dew Point Humidity Pressure Visibility Wind Dir Wind Speed Gust Speed Precip Events Conditions
12:00 AM 45 °F - 36 °F 62% 30.47 in - SSE 4.5 mph - -  
1:00 AM 45 °F - 38 °F 67% 30.47 in - East 8.9 mph - -  
2:00 AM 43 °F - 36 °F 69% 30.47 in - East 6.7 mph - -  
3:00 AM 40 °F - 35 °F 76% 30.47 in - East 4.5 mph - -  
4:00 AM 41 °F - 35 °F 73% 30.46 in - East 6.7 mph - -  
5:00 AM 43 °F - 37 °F 72% 30.45 in - East 11.2 mph - -  
5:20 AM 44.6 °F 38.8 °F 37.4 °F 76% 30.45 in - ESE 11.5 mph - N/A   Clear
5:50 AM 44.6 °F 38.8 °F 37.4 °F 76% 30.45 in - ESE 11.5 mph - N/A   Clear
6:00 AM 44 °F - 37 °F 68% 30.45 in - ESE 11.2 mph - -  
6:20 AM 44.6 °F 38.8 °F 37.4 °F 76% 30.45 in - ESE 11.5 mph - N/A   Clear
7:00 AM 44 °F - 36 °F 65% 30.46 in - ESE 11.2 mph - -  
7:50 AM 44.6 °F 37.4 °F 37.4 °F 76% 30.45 in - ESE 16.1 mph - N/A   Clear
8:00 AM 44 °F - 37 °F 67% 30.46 in - East 13.4 mph - -  
9:00 AM 45 °F - 38 °F 67% 30.47 in - ESE 15.7 mph - -  
9:20 AM 44.6 °F 37.8 °F 39.2 °F 81% 30.45 in - SE 15.0 mph - N/A   Clear
10:00 AM 45 °F - 36 °F 62% 30.48 in - SE 11.2 mph - -  
10:20 AM 44.6 °F 38.4 °F 35.6 °F 71% 30.48 in - SE 12.7 mph - N/A   Clear
11:00 AM 45 °F - 36 °F 62% 30.49 in - SSE 8.9 mph - -  
11:20 AM 46.4 °F 44.3 °F 37.4 °F 71% 30.48 in - SE 4.6 mph - N/A   Clear
12:00 PM 46 °F - 36 °F 57% 30.49 in - East 6.7 mph - -  
1:00 PM 46 °F - 36 °F 57% 30.49 in - East 6.7 mph - -  
2:00 PM 42 °F - 34 °F 65% 30.50 in - SE 2.2 mph - -  
2:20 PM 41.0 °F 33.1 °F 33.8 °F 76% 30.48 in - ESE 15.0 mph - N/A   Clear
2:50 PM 42.8 °F 41.1 °F 33.8 °F 70% 30.48 in - ESE 3.5 mph - N/A   Clear
3:00 PM 40 °F - 34 °F 72% 30.51 in - SE 2.2 mph - -  
3:20 PM 39.2 °F - 33.8 °F 81% 30.51 in - Variable 1.2 mph - N/A   Clear
4:00 PM 37 °F - 33 °F 80% 30.51 in - SSE 2.2 mph - -  
4:20 PM 35.6 °F - 32.0 °F 87% 30.51 in - Variable 2.3 mph - N/A   Clear
5:00 PM 38 °F - 34 °F 78% 30.52 in - SSE 2.2 mph - -  
6:00 PM 39 °F - 34 °F 77% 30.53 in - SE 2.2 mph - -  
7:00 PM 39 °F - 34 °F 77% 30.54 in - East 8.9 mph - -  
8:00 PM 39 °F - 35 °F 80% 30.55 in - East 6.7 mph - -  
9:00 PM 39 °F - 34 °F 77% 30.56 in - East 6.7 mph - -  
10:00 PM 38 °F - 34 °F 78% 30.57 in - East 4.5 mph - -  
11:00 PM 35 °F - 33 °F 87% 30.57 in - East 4.5 mph - -